| time (UTC) | temp C | wind direction | speed KPH | gust KPH | rain 1hr cm | rain 24hr cm | rain mn cm | humidity % | barometer mb |
| 20260504150716 | 18 | 264 | 3.2 | 12.9 | 0.00 | 0.00 | 0.00 | 40 | 1013.4 |
| 20260504150213 | 18 | 273 | 12.9 | 17.7 | 0.00 | 0.00 | 0.00 | 40 | 1013.3 |
| 20260504141142 | 17 | 194 | 14.5 | 20.9 | 0.00 | 0.00 | 0.00 | 47 | 1013.4 |
| 20260504140639 | 17 | 236 | 14.5 | 24.1 | 0.00 | 0.00 | 0.00 | 47 | 1013.7 |
| 20260504140134 | 17 | 288 | 8.0 | 17.7 | 0.00 | 0.00 | 0.00 | 48 | 1013.5 |
| 20260504130602 | 15 | 263 | 3.2 | 14.5 | 0.00 | 0.00 | 0.00 | 55 | 1013.9 |
| 20260504110450 | 10 | 239 | 1.6 | 4.8 | 0.00 | 0.00 | 0.00 | 73 | 1014.8 |
| 20260504100413 | 8 | 230 | 4.8 | 6.4 | 0.00 | 0.00 | 0.00 | 71 | 1014.8 |
| 20260504081806 | 8 | 244 | 0.0 | 4.8 | 0.00 | 0.00 | 0.00 | 63 | 1014.8 |
| 20260504081302 | 8 | 236 | 3.2 | 4.8 | 0.00 | 0.00 | 0.00 | 63 | 1014.6 |
| 20260504080759 | 8 | 226 | 1.6 | 3.2 | 0.00 | 0.00 | 0.00 | 63 | 1014.7 |
| 20260504080255 | 8 | 257 | 1.6 | 3.2 | 0.00 | 0.00 | 0.00 | 62 | 1014.5 |
| 20260504070223 | 8 | 251 | 0.0 | 3.2 | 0.00 | 0.00 | 0.00 | 61 | 1014.3 |
| 20260504060143 | 8 | 253 | 0.0 | 3.2 | 0.00 | 0.00 | 0.00 | 58 | 1014.3 |
| 20260504050611 | 9 | 230 | 3.2 | 3.2 | 0.00 | 0.00 | 0.00 | 55 | 1014.4 |
| 20260504050108 | 9 | 240 | 0.0 | 1.6 | 0.00 | 0.00 | 0.00 | 54 | 1014.2 |
| 20260504045605 | 9 | 242 | 1.6 | 1.6 | 0.00 | 0.00 | 0.00 | 54 | 1014.2 |
| 20260504045100 | 9 | 244 | 3.2 | 3.2 | 0.00 | 0.00 | 0.00 | 54 | 1014.0 |
| 20260504044558 | 9 | 244 | 0.0 | 1.6 | 0.00 | 0.00 | 0.00 | 54 | 1014.0 |
| 20260504044055 | 10 | 235 | 1.6 | 3.2 | 0.00 | 0.00 | 0.00 | 53 | 1014.1 |
| 20260504043552 | 10 | 252 | 0.0 | 3.2 | 0.00 | 0.00 | 0.00 | 52 | 1014.2 |
| 20260504043049 | 10 | 254 | 1.6 | 3.2 | 0.00 | 0.00 | 0.00 | 52 | 1014.0 |
| 20260504042546 | 10 | 253 | 1.6 | 1.6 | 0.00 | 0.00 | 0.00 | 52 | 1014.0 |
| 20260504042043 | 10 | 250 | 3.2 | 3.2 | 0.00 | 0.00 | 0.00 | 52 | 1013.9 |
| 20260504041539 | 10 | 252 | 1.6 | 3.2 | 0.00 | 0.00 | 0.00 | 51 | 1013.8 |
| 20260504041035 | 10 | 241 | 1.6 | 3.2 | 0.00 | 0.00 | 0.00 | 51 | 1013.9 |
| 20260504040533 | 10 | 236 | 1.6 | 3.2 | 0.00 | 0.00 | 0.00 | 51 | 1013.9 |
| 20260504040029 | 10 | 240 | 0.0 | 1.6 | 0.00 | 0.00 | 0.00 | 50 | 1013.7 |
| 20260504035526 | 10 | 241 | 1.6 | 3.2 | 0.00 | 0.00 | 0.00 | 50 | 1013.9 |
| 20260504035022 | 10 | 246 | 1.6 | 3.2 | 0.00 | 0.00 | 0.00 | 49 | 1013.7 |
| 20260504034520 | 10 | 250 | 0.0 | 1.6 | 0.00 | 0.00 | 0.00 | 49 | 1013.6 |
| 20260504034017 | 10 | 244 | 1.6 | 4.8 | 0.00 | 0.00 | 0.00 | 49 | 1013.8 |
| 20260504033515 | 10 | 221 | 1.6 | 3.2 | 0.00 | 0.00 | 0.00 | 49 | 1013.7 |
| 20260504033012 | 10 | 225 | 3.2 | 3.2 | 0.00 | 0.00 | 0.00 | 49 | 1013.7 |
| 20260504032509 | 10 | 231 | 1.6 | 4.8 | 0.00 | 0.00 | 0.00 | 49 | 1013.6 |
| 20260504032005 | 10 | 241 | 1.6 | 3.2 | 0.00 | 0.00 | 0.00 | 48 | 1013.4 |
| 20260504031502 | 10 | 245 | 0.0 | 1.6 | 0.00 | 0.00 | 0.00 | 47 | 1013.6 |
| 20260504030959 | 10 | 256 | 1.6 | 3.2 | 0.00 | 0.00 | 0.00 | 47 | 1013.4 |
| 20260504030456 | 10 | 254 | 3.2 | 3.2 | 0.00 | 0.00 | 0.00 | 47 | 1013.5 |
| 20260504025952 | 10 | 252 | 0.0 | 3.2 | 0.00 | 0.00 | 0.00 | 47 | 1013.5 |
| 20260504025449 | 10 | 233 | 1.6 | 3.2 | 0.00 | 0.00 | 0.00 | 46 | 1013.6 |
| 20260504024946 | 10 | 223 | 1.6 | 3.2 | 0.00 | 0.00 | 0.00 | 46 | 1013.6 |
| 20260504024443 | 10 | 245 | 0.0 | 1.6 | 0.00 | 0.00 | 0.00 | 46 | 1013.6 |
| 20260504023940 | 10 | 249 | 1.6 | 1.6 | 0.00 | 0.00 | 0.00 | 46 | 1013.7 |
| 20260504023437 | 11 | 240 | 1.6 | 3.2 | 0.00 | 0.00 | 0.00 | 45 | 1013.7 |
| 20260504022932 | 11 | 245 | 0.0 | 3.2 | 0.00 | 0.00 | 0.00 | 45 | 1013.7 |
| 20260504022429 | 11 | 245 | 1.6 | 3.2 | 0.00 | 0.00 | 0.00 | 43 | 1013.5 |
| 20260504021925 | 11 | 254 | 1.6 | 1.6 | 0.00 | 0.00 | 0.00 | 43 | 1013.5 |
| 20260504021423 | 11 | 238 | 3.2 | 3.2 | 0.00 | 0.00 | 0.00 | 43 | 1013.5 |
| 20260504020920 | 11 | 252 | 1.6 | 3.2 | 0.00 | 0.00 | 0.00 | 44 | 1013.6 |
| 20260504020416 | 11 | 238 | 1.6 | 1.6 | 0.00 | 0.00 | 0.00 | 43 | 1013.5 |
| 20260504015913 | 11 | 241 | 1.6 | 1.6 | 0.00 | 0.00 | 0.00 | 43 | 1013.5 |
| 20260504015409 | 11 | 241 | 1.6 | 3.2 | 0.00 | 0.00 | 0.00 | 43 | 1013.5 |
| 20260504014905 | 11 | 236 | 1.6 | 3.2 | 0.00 | 0.00 | 0.00 | 43 | 1013.6 |
| 20260504014401 | 11 | 237 | 1.6 | 3.2 | 0.00 | 0.00 | 0.00 | 42 | 1013.5 |
| 20260504013859 | 12 | 243 | 0.0 | 1.6 | 0.00 | 0.00 | 0.00 | 42 | 1013.3 |
| 20260504013357 | 12 | 247 | 0.0 | 1.6 | 0.00 | 0.00 | 0.00 | 41 | 1013.3 |
| 20260504012853 | 12 | 242 | 0.0 | 3.2 | 0.00 | 0.00 | 0.00 | 40 | 1013.2 |
| 20260504012351 | 12 | 240 | 1.6 | 3.2 | 0.00 | 0.00 | 0.00 | 40 | 1013.2 |
| 20260504011848 | 12 | 245 | 1.6 | 3.2 | 0.00 | 0.00 | 0.00 | 40 | 1013.2 |
| 20260504011344 | 12 | 246 | 1.6 | 3.2 | 0.00 | 0.00 | 0.00 | 39 | 1013.2 |
| 20260504010841 | 12 | 244 | 0.0 | 3.2 | 0.00 | 0.00 | 0.00 | 38 | 1013.0 |
| 20260504010336 | 12 | 260 | 3.2 | 3.2 | 0.00 | 0.00 | 0.00 | 38 | 1012.8 |
| 20260504005833 | 12 | 251 | 1.6 | 1.6 | 0.00 | 0.00 | 0.00 | 38 | 1013.0 |
| 20260504005330 | 13 | 242 | 1.6 | 3.2 | 0.00 | 0.00 | 0.00 | 38 | 1012.9 |
| 20260504004827 | 13 | 247 | 1.6 | 4.8 | 0.00 | 0.00 | 0.00 | 37 | 1012.8 |
| 20260504004325 | 13 | 256 | 3.2 | 3.2 | 0.00 | 0.00 | 0.00 | 35 | 1012.8 |
| 20260504003821 | 13 | 262 | 4.8 | 4.8 | 0.00 | 0.00 | 0.00 | 35 | 1012.5 |
| 20260504003318 | 13 | 248 | 1.6 | 4.8 | 0.00 | 0.00 | 0.00 | 35 | 1012.5 |
| 20260504002815 | 13 | 250 | 1.6 | 4.8 | 0.00 | 0.00 | 0.00 | 35 | 1012.4 |
| 20260504002312 | 13 | 251 | 3.2 | 3.2 | 0.00 | 0.00 | 0.00 | 35 | 1012.4 |
| 20260504001809 | 14 | 260 | 1.6 | 3.2 | 0.00 | 0.00 | 0.00 | 35 | 1012.3 |
| 20260504001306 | 14 | 259 | 1.6 | 4.8 | 0.00 | 0.00 | 0.00 | 33 | 1012.2 |
| 20260504000803 | 14 | 258 | 3.2 | 4.8 | 0.00 | 0.00 | 0.00 | 33 | 1012.2 |
| 20260504000300 | 14 | 222 | 3.2 | 6.4 | 0.00 | 0.00 | 0.00 | 34 | 1012.3 |
| 20260503235758 | 14 | 260 | 3.2 | 6.4 | 0.00 | 0.00 | 0.00 | 33 | 1012.6 |
| 20260503235255 | 14 | 259 | 3.2 | 4.8 | 0.00 | 0.00 | 0.00 | 33 | 1012.4 |
| 20260503234753 | 15 | 259 | 3.2 | 4.8 | 0.00 | 0.00 | 0.00 | 33 | 1012.1 |
| 20260503234251 | 15 | 264 | 3.2 | 3.2 | 0.00 | 0.00 | 0.00 | 32 | 1012.1 |
| 20260503233748 | 15 | 265 | 3.2 | 4.8 | 0.00 | 0.00 | 0.00 | 31 | 1012.2 |
| 20260503233243 | 15 | 258 | 3.2 | 4.8 | 0.00 | 0.00 | 0.00 | 31 | 1012.1 |
| 20260503232741 | 15 | 260 | 4.8 | 4.8 | 0.00 | 0.00 | 0.00 | 30 | 1012.1 |
| 20260503232238 | 15 | 270 | 8.0 | 9.7 | 0.00 | 0.00 | 0.00 | 30 | 1012.1 |
| 20260503231736 | 15 | 267 | 4.8 | 4.8 | 0.00 | 0.00 | 0.00 | 31 | 1012.0 |
| 20260503231232 | 15 | 248 | 4.8 | 6.4 | 0.00 | 0.00 | 0.00 | 30 | 1011.8 |
| 20260503230728 | 15 | 263 | 3.2 | 6.4 | 0.00 | 0.00 | 0.00 | 30 | 1011.7 |
| 20260503230226 | 15 | 261 | 4.8 | 9.7 | 0.00 | 0.00 | 0.00 | 29 | 1011.7 |
| 20260503225723 | 15 | 269 | 6.4 | 12.9 | 0.00 | 0.00 | 0.00 | 29 | 1011.6 |
| 20260503225223 | 15 | 256 | 3.2 | 12.9 | 0.00 | 0.00 | 0.00 | 29 | 1011.7 |
| 20260503224720 | 15 | 278 | 9.7 | 12.9 | 0.00 | 0.00 | 0.00 | 28 | 1011.8 |
| 20260503224218 | 15 | 274 | 6.4 | 11.3 | 0.00 | 0.00 | 0.00 | 28 | 1011.7 |
| 20260503223716 | 15 | 289 | 6.4 | 9.7 | 0.00 | 0.00 | 0.00 | 28 | 1011.9 |
| 20260503223213 | 15 | 276 | 6.4 | 9.7 | 0.00 | 0.00 | 0.00 | 28 | 1011.9 |
| 20260503222709 | 16 | 281 | 6.4 | 17.7 | 0.00 | 0.00 | 0.00 | 29 | 1011.7 |
| 20260503222207 | 16 | 271 | 4.8 | 12.9 | 0.00 | 0.00 | 0.00 | 29 | 1011.7 |
| 20260503221706 | 16 | 279 | 8.0 | 14.5 | 0.00 | 0.00 | 0.00 | 29 | 1011.5 |
| 20260503221203 | 15 | 276 | 6.4 | 12.9 | 0.00 | 0.00 | 0.00 | 29 | 1011.7 |
| 20260503220659 | 16 | 262 | 8.0 | 14.5 | 0.00 | 0.00 | 0.00 | 29 | 1011.8 |
| 20260503220156 | 16 | 263 | 3.2 | 6.4 | 0.00 | 0.00 | 0.00 | 30 | 1011.7 |
| 20260503215653 | 15 | 261 | 3.2 | 14.5 | 0.00 | 0.00 | 0.00 | 29 | 1011.9 |
| 20260503215149 | 15 | 271 | 6.4 | 12.9 | 0.00 | 0.00 | 0.00 | 28 | 1012.0 |
| 20260503214648 | 16 | 284 | 9.7 | 16.1 | 0.00 | 0.00 | 0.00 | 28 | 1011.8 |
| 20260503214144 | 16 | 304 | 3.2 | 6.4 | 0.00 | 0.00 | 0.00 | 29 | 1011.8 |
| 20260503213643 | 16 | 285 | 6.4 | 9.7 | 0.00 | 0.00 | 0.00 | 29 | 1011.8 |
| 20260503213139 | 16 | 263 | 4.8 | 9.7 | 0.00 | 0.00 | 0.00 | 30 | 1011.8 |
| 20260503212637 | 16 | 268 | 4.8 | 6.4 | 0.00 | 0.00 | 0.00 | 30 | 1011.6 |
| 20260503212134 | 15 | 269 | 6.4 | 16.1 | 0.00 | 0.00 | 0.00 | 30 | 1011.7 |
| 20260503211632 | 15 | 262 | 4.8 | 11.3 | 0.00 | 0.00 | 0.00 | 30 | 1011.8 |
| 20260503211127 | 15 | 290 | 9.7 | 11.3 | 0.00 | 0.00 | 0.00 | 29 | 1011.8 |
| 20260503210624 | 15 | 281 | 6.4 | 14.5 | 0.00 | 0.00 | 0.00 | 29 | 1011.8 |
| 20260503210120 | 16 | 269 | 8.0 | 11.3 | 0.00 | 0.00 | 0.00 | 28 | 1011.8 |
| 20260503205616 | 16 | 270 | 6.4 | 9.7 | 0.00 | 0.00 | 0.00 | 30 | 1011.9 |
| 20260503205113 | 15 | 274 | 11.3 | 16.1 | 0.00 | 0.00 | 0.00 | 29 | 1011.7 |
| 20260503204610 | 15 | 348 | 6.4 | 11.3 | 0.00 | 0.00 | 0.00 | 29 | 1011.7 |
| 20260503204107 | 15 | 298 | 6.4 | 9.7 | 0.00 | 0.00 | 0.00 | 29 | 1011.7 |
| 20260503203604 | 15 | 305 | 9.7 | 14.5 | 0.00 | 0.00 | 0.00 | 29 | 1012.0 |
| 20260503203101 | 15 | 258 | 11.3 | 17.7 | 0.00 | 0.00 | 0.00 | 28 | 1011.9 |
| 20260503202559 | 15 | 289 | 6.4 | 16.1 | 0.00 | 0.00 | 0.00 | 29 | 1011.8 |
| 20260503202056 | 16 | 324 | 9.7 | 25.7 | 0.00 | 0.00 | 0.00 | 28 | 1011.9 |
| 20260503201554 | 15 | 294 | 8.0 | 9.7 | 0.00 | 0.00 | 0.00 | 30 | 1011.8 |
| 20260503201051 | 15 | 290 | 8.0 | 12.9 | 0.00 | 0.00 | 0.00 | 28 | 1012.0 |
| 20260503200547 | 15 | 306 | 6.4 | 11.3 | 0.00 | 0.00 | 0.00 | 28 | 1011.8 |
| 20260503200044 | 15 | 268 | 3.2 | 6.4 | 0.00 | 0.00 | 0.00 | 30 | 1011.9 |
| 20260503195541 | 15 | 263 | 6.4 | 14.5 | 0.00 | 0.00 | 0.00 | 28 | 1011.9 |
| 20260503195038 | 15 | 289 | 8.0 | 14.5 | 0.00 | 0.00 | 0.00 | 29 | 1011.9 |
| 20260503194535 | 15 | 277 | 11.3 | 14.5 | 0.00 | 0.00 | 0.00 | 28 | 1011.9 |
| 20260503194035 | 16 | 270 | 9.7 | 16.1 | 0.00 | 0.00 | 0.00 | 29 | 1011.9 |
| 20260503193532 | 15 | 264 | 6.4 | 9.7 | 0.00 | 0.00 | 0.00 | 29 | 1012.0 |
| 20260503193027 | 15 | 274 | 8.0 | 20.9 | 0.00 | 0.00 | 0.00 | 30 | 1012.1 |
| 20260503192524 | 15 | 284 | 6.4 | 16.1 | 0.00 | 0.00 | 0.00 | 30 | 1012.1 |
| 20260503192020 | 15 | 288 | 9.7 | 25.7 | 0.00 | 0.00 | 0.00 | 29 | 1012.3 |
| 20260503191517 | 15 | 279 | 11.3 | 16.1 | 0.00 | 0.00 | 0.00 | 29 | 1012.1 |
| 20260503191013 | 15 | 254 | 8.0 | 11.3 | 0.00 | 0.00 | 0.00 | 29 | 1012.1 |
| 20260503190510 | 15 | 273 | 6.4 | 22.5 | 0.00 | 0.00 | 0.00 | 31 | 1012.2 |
| 20260503190008 | 14 | 288 | 8.0 | 14.5 | 0.00 | 0.00 | 0.00 | 30 | 1012.3 |
| 20260503185503 | 15 | 270 | 4.8 | 17.7 | 0.00 | 0.00 | 0.00 | 30 | 1012.5 |
| 20260503185003 | 15 | 268 | 4.8 | 16.1 | 0.00 | 0.00 | 0.00 | 29 | 1012.5 |
| 20260503184500 | 15 | 319 | 12.9 | 14.5 | 0.00 | 0.00 | 0.00 | 29 | 1012.6 |
| 20260503183956 | 14 | 330 | 8.0 | 12.9 | 0.00 | 0.00 | 0.00 | 30 | 1012.6 |
| 20260503183453 | 14 | 339 | 16.1 | 17.7 | 0.00 | 0.00 | 0.00 | 29 | 1012.6 |
| 20260503182950 | 15 | 342 | 6.4 | 16.1 | 0.00 | 0.00 | 0.00 | 29 | 1012.7 |
| 20260503182449 | 14 | 308 | 6.4 | 12.9 | 0.00 | 0.00 | 0.00 | 31 | 1012.7 |
| 20260503181946 | 15 | 285 | 8.0 | 11.3 | 0.00 | 0.00 | 0.00 | 30 | 1012.8 |
| 20260503181443 | 13 | 288 | 8.0 | 11.3 | 0.00 | 0.00 | 0.00 | 30 | 1012.8 |
| 20260503180939 | 13 | 326 | 8.0 | 11.3 | 0.00 | 0.00 | 0.00 | 31 | 1012.8 |
| 20260503180438 | 13 | 325 | 9.7 | 22.5 | 0.00 | 0.00 | 0.00 | 30 | 1012.8 |
| 20260503175934 | 13 | 296 | 14.5 | 17.7 | 0.00 | 0.00 | 0.00 | 29 | 1012.8 |
| 20260503175432 | 13 | 259 | 9.7 | 14.5 | 0.00 | 0.00 | 0.00 | 32 | 1012.7 |
| 20260503174928 | 13 | 316 | 12.9 | 17.7 | 0.00 | 0.00 | 0.00 | 31 | 1013.1 |
| 20260503174426 | 13 | 317 | 6.4 | 9.7 | 0.00 | 0.00 | 0.00 | 34 | 1012.9 |
| 20260503173926 | 13 | 275 | 8.0 | 12.9 | 0.00 | 0.00 | 0.00 | 36 | 1012.9 |
| 20260503173422 | 13 | 288 | 8.0 | 11.3 | 0.00 | 0.00 | 0.00 | 33 | 1012.9 |
| 20260503172919 | 13 | 320 | 8.0 | 20.9 | 0.00 | 0.00 | 0.00 | 33 | 1013.0 |
| 20260503172417 | 13 | 280 | 9.7 | 17.7 | 0.00 | 0.00 | 0.00 | 32 | 1013.1 |
| 20260503171913 | 12 | 304 | 9.7 | 12.9 | 0.00 | 0.00 | 0.00 | 35 | 1012.8 |
| 20260503171410 | 13 | 259 | 4.8 | 14.5 | 0.00 | 0.00 | 0.00 | 33 | 1013.3 |
| 20260503170907 | 12 | 290 | 3.2 | 11.3 | 0.00 | 0.00 | 0.00 | 34 | 1013.1 |
| 20260503170403 | 12 | 337 | 9.7 | 20.9 | 0.00 | 0.00 | 0.00 | 35 | 1013.1 |